Year,Month,Day,Hour,Minute,Value (Times are PST for temperature in C)
2015,06,09,00,00,19.80
2015,06,09,00,01,19.70
2015,06,09,00,02,19.70
2015,06,09,00,03,19.70
2015,06,09,00,04,19.70
2015,06,09,00,05,19.60
2015,06,09,00,06,19.60
2015,06,09,00,07,19.60
2015,06,09,00,08,19.60
2015,06,09,00,09,19.60
2015,06,09,00,10,19.50
2015,06,09,00,11,19.50
2015,06,09,00,12,19.50
2015,06,09,00,13,19.40
2015,06,09,00,14,19.40
2015,06,09,00,15,19.40
2015,06,09,00,16,19.40
2015,06,09,00,17,19.40
2015,06,09,00,18,19.30
2015,06,09,00,19,19.30
2015,06,09,00,20,19.30
2015,06,09,00,21,19.30
2015,06,09,00,22,19.30
2015,06,09,00,23,19.30
2015,06,09,00,24,19.30
2015,06,09,00,25,19.30
2015,06,09,00,26,19.30
2015,06,09,00,27,19.30
2015,06,09,00,28,19.20
2015,06,09,00,29,19.20
2015,06,09,00,30,19.20
2015,06,09,00,31,19.20
2015,06,09,00,32,19.20
2015,06,09,00,33,19.20
2015,06,09,00,34,19.20
2015,06,09,00,35,19.20
2015,06,09,00,36,19.20
2015,06,09,00,37,19.10
2015,06,09,00,38,19.10
2015,06,09,00,39,19.10
2015,06,09,00,40,19.10
2015,06,09,00,41,19.10
2015,06,09,00,42,19.10
2015,06,09,00,43,19.10
2015,06,09,00,44,19.10
2015,06,09,00,45,19.10
2015,06,09,00,46,19.10
2015,06,09,00,47,19.10
2015,06,09,00,48,19.00
2015,06,09,00,49,19.00
2015,06,09,00,50,19.00
2015,06,09,00,51,19.00
2015,06,09,00,52,18.90
2015,06,09,00,53,18.90
2015,06,09,00,54,18.90
2015,06,09,00,55,18.90
2015,06,09,00,56,18.90
2015,06,09,00,57,18.90
2015,06,09,00,58,18.90
2015,06,09,00,59,18.90
2015,06,09,01,00,18.90
2015,06,09,01,01,18.90
2015,06,09,01,02,18.90
2015,06,09,01,03,18.80
2015,06,09,01,04,18.80
2015,06,09,01,05,18.80
2015,06,09,01,06,18.80
2015,06,09,01,07,18.80
2015,06,09,01,08,18.80
2015,06,09,01,09,18.80
2015,06,09,01,10,18.80
2015,06,09,01,11,18.80
2015,06,09,01,12,18.80
2015,06,09,01,13,18.80
2015,06,09,01,14,18.80
2015,06,09,01,15,18.70
2015,06,09,01,16,18.70
2015,06,09,01,17,18.70
2015,06,09,01,18,18.70
2015,06,09,01,19,18.70
2015,06,09,01,20,18.60
2015,06,09,01,21,18.60
2015,06,09,01,22,18.60
2015,06,09,01,23,18.60
2015,06,09,01,24,18.60
2015,06,09,01,25,18.50
2015,06,09,01,26,18.50
2015,06,09,01,27,18.50
2015,06,09,01,28,18.50
2015,06,09,01,29,18.40
2015,06,09,01,30,18.40
2015,06,09,01,31,18.40
2015,06,09,01,32,18.40
2015,06,09,01,33,18.40
2015,06,09,01,34,18.40
2015,06,09,01,35,18.30
2015,06,09,01,36,18.30
2015,06,09,01,37,18.30
2015,06,09,01,38,18.30
2015,06,09,01,39,18.30
2015,06,09,01,40,18.30
2015,06,09,01,41,18.20
2015,06,09,01,42,18.20
2015,06,09,01,43,18.20
2015,06,09,01,44,18.20
2015,06,09,01,45,18.20
2015,06,09,01,46,18.10
2015,06,09,01,47,18.10
2015,06,09,01,48,18.10
2015,06,09,01,49,18.10
2015,06,09,01,50,18.10
2015,06,09,01,51,18.00
2015,06,09,01,52,18.00
2015,06,09,01,53,18.00
2015,06,09,01,54,17.90
2015,06,09,01,55,17.90
2015,06,09,01,56,17.90
2015,06,09,01,57,17.90
2015,06,09,01,58,17.90
2015,06,09,01,59,17.80
2015,06,09,02,00,17.80
2015,06,09,02,01,17.80
2015,06,09,02,02,17.80
2015,06,09,02,03,17.80
2015,06,09,02,04,17.80
2015,06,09,02,05,17.80
2015,06,09,02,06,17.80
2015,06,09,02,07,17.80
2015,06,09,02,08,17.80
2015,06,09,02,09,17.80
2015,06,09,02,10,17.80
2015,06,09,02,11,17.80
2015,06,09,02,12,17.80
2015,06,09,02,13,17.80
2015,06,09,02,14,17.80
2015,06,09,02,15,17.80
2015,06,09,02,16,17.80
2015,06,09,02,17,17.80
2015,06,09,02,18,17.70
2015,06,09,02,19,17.70
2015,06,09,02,20,17.70
2015,06,09,02,21,17.70
2015,06,09,02,22,17.70
2015,06,09,02,23,17.70
2015,06,09,02,24,17.70
2015,06,09,02,25,17.60
2015,06,09,02,26,17.60
2015,06,09,02,27,17.60
2015,06,09,02,28,17.60
2015,06,09,02,29,17.50
2015,06,09,02,30,17.50
2015,06,09,02,31,17.40
2015,06,09,02,32,17.40
2015,06,09,02,33,17.40
2015,06,09,02,34,17.40
2015,06,09,02,35,17.30
2015,06,09,02,36,17.30
2015,06,09,02,37,17.30
2015,06,09,02,38,17.30
2015,06,09,02,39,17.20
2015,06,09,02,40,17.20
2015,06,09,02,41,17.20
2015,06,09,02,42,17.20
2015,06,09,02,43,17.10
2015,06,09,02,44,17.10
2015,06,09,02,45,17.10
2015,06,09,02,46,17.00
2015,06,09,02,47,17.00
2015,06,09,02,48,17.00
2015,06,09,02,49,16.90
2015,06,09,02,50,16.90
2015,06,09,02,51,16.90
2015,06,09,02,52,16.90
2015,06,09,02,53,16.80
2015,06,09,02,54,16.80
2015,06,09,02,55,16.80
2015,06,09,02,56,16.80
2015,06,09,02,57,16.80
2015,06,09,02,58,16.80
2015,06,09,02,59,16.70
2015,06,09,03,00,16.70
2015,06,09,03,01,16.70
2015,06,09,03,02,16.70
2015,06,09,03,03,16.70
2015,06,09,03,04,16.70
2015,06,09,03,05,16.60
2015,06,09,03,06,16.60
2015,06,09,03,07,16.60
2015,06,09,03,08,16.60
2015,06,09,03,09,16.60
2015,06,09,03,10,16.50
2015,06,09,03,11,16.50
2015,06,09,03,12,16.50
2015,06,09,03,13,16.50
2015,06,09,03,14,16.40
2015,06,09,03,15,16.40
2015,06,09,03,16,16.40
2015,06,09,03,17,16.40
2015,06,09,03,18,16.40
2015,06,09,03,19,16.30
2015,06,09,03,20,16.30
2015,06,09,03,21,16.30
2015,06,09,03,22,16.30
2015,06,09,03,23,16.30
2015,06,09,03,24,16.30
2015,06,09,03,25,16.20
2015,06,09,03,26,16.20
2015,06,09,03,27,16.20
2015,06,09,03,28,16.20
2015,06,09,03,29,16.10
2015,06,09,03,30,16.10
2015,06,09,03,31,16.10
2015,06,09,03,32,16.10
2015,06,09,03,33,16.10
2015,06,09,03,34,16.00
2015,06,09,03,35,16.00
2015,06,09,03,36,16.00
2015,06,09,03,37,15.90
2015,06,09,03,38,15.90
2015,06,09,03,39,15.90
2015,06,09,03,40,15.90
2015,06,09,03,41,15.80
2015,06,09,03,42,15.80
2015,06,09,03,43,15.80
2015,06,09,03,44,15.80
2015,06,09,03,45,15.80
2015,06,09,03,46,15.80
2015,06,09,03,47,15.70
2015,06,09,03,48,15.70
2015,06,09,03,49,15.70
2015,06,09,03,50,15.70
2015,06,09,03,51,15.70
2015,06,09,03,52,15.70
2015,06,09,03,53,15.60
2015,06,09,03,54,15.60
2015,06,09,03,55,15.60
2015,06,09,03,56,15.60
2015,06,09,03,57,15.60
2015,06,09,03,58,15.50
2015,06,09,03,59,15.50
2015,06,09,04,00,15.50
2015,06,09,04,01,15.40
2015,06,09,04,02,15.40
2015,06,09,04,03,15.40
2015,06,09,04,04,15.40
2015,06,09,04,05,15.30
2015,06,09,04,06,15.30
2015,06,09,04,07,15.30
2015,06,09,04,08,15.30
2015,06,09,04,09,15.30
2015,06,09,04,10,15.20
2015,06,09,04,11,15.20
2015,06,09,04,12,15.20
2015,06,09,04,13,15.20
2015,06,09,04,14,15.10
2015,06,09,04,15,15.10
2015,06,09,04,16,15.10
2015,06,09,04,17,15.10
2015,06,09,04,18,15.10
2015,06,09,04,19,15.10
2015,06,09,04,20,15.10
2015,06,09,04,21,15.10
2015,06,09,04,22,15.10
2015,06,09,04,23,15.10
2015,06,09,04,24,15.10
2015,06,09,04,25,15.10
2015,06,09,04,26,15.10
2015,06,09,04,27,15.00
2015,06,09,04,28,15.00
2015,06,09,04,29,15.00
2015,06,09,04,30,15.00
2015,06,09,04,31,15.00
2015,06,09,04,32,15.00
2015,06,09,04,33,15.00
2015,06,09,04,34,15.00
2015,06,09,04,35,15.00
2015,06,09,04,36,14.90
2015,06,09,04,37,14.90
2015,06,09,04,38,14.90
2015,06,09,04,39,14.90
2015,06,09,04,40,14.90
2015,06,09,04,41,14.90
2015,06,09,04,42,14.90
2015,06,09,04,43,14.80
2015,06,09,04,44,14.80
2015,06,09,04,45,14.80
2015,06,09,04,46,14.80
2015,06,09,04,47,14.80
2015,06,09,04,48,14.80
2015,06,09,04,49,14.80
2015,06,09,04,50,14.80
2015,06,09,04,51,14.80
2015,06,09,04,52,14.80
2015,06,09,04,53,14.70
2015,06,09,04,54,14.70
2015,06,09,04,55,14.70
2015,06,09,04,56,14.70
2015,06,09,04,57,14.70
2015,06,09,04,58,14.70
2015,06,09,04,59,14.70
2015,06,09,05,00,14.70
2015,06,09,05,01,14.70
2015,06,09,05,02,14.70
2015,06,09,05,03,14.60
2015,06,09,05,04,14.60
2015,06,09,05,05,14.60
2015,06,09,05,06,14.60
2015,06,09,05,07,14.60
2015,06,09,05,08,14.60
2015,06,09,05,09,14.60
2015,06,09,05,10,14.50
2015,06,09,05,11,14.50
2015,06,09,05,12,14.50
2015,06,09,05,13,14.50
2015,06,09,05,14,14.50
2015,06,09,05,15,14.50
2015,06,09,05,16,14.40
2015,06,09,05,17,14.40
2015,06,09,05,18,14.40
2015,06,09,05,19,14.40
2015,06,09,05,20,14.40
2015,06,09,05,21,14.40
2015,06,09,05,22,14.40
2015,06,09,05,23,14.40
2015,06,09,05,24,14.40
2015,06,09,05,25,14.40
2015,06,09,05,26,14.40
2015,06,09,05,27,14.40
2015,06,09,05,28,14.40
2015,06,09,05,29,14.40
2015,06,09,05,30,14.40
2015,06,09,05,31,14.40
2015,06,09,05,32,14.40
2015,06,09,05,33,14.40
2015,06,09,05,34,14.40
2015,06,09,05,35,14.30
2015,06,09,05,36,14.30
2015,06,09,05,37,14.30
2015,06,09,05,38,14.30
2015,06,09,05,39,14.30
2015,06,09,05,40,14.30
2015,06,09,05,41,14.30
2015,06,09,05,42,14.30
2015,06,09,05,43,14.30
2015,06,09,05,44,14.30
2015,06,09,05,45,14.30
2015,06,09,05,46,14.30
2015,06,09,05,47,14.30
2015,06,09,05,48,14.30
2015,06,09,05,49,14.30
2015,06,09,05,50,14.30
2015,06,09,05,51,14.30
2015,06,09,05,52,14.30
2015,06,09,05,53,14.30
2015,06,09,05,54,14.20
2015,06,09,05,55,14.20
2015,06,09,05,56,14.20
2015,06,09,05,57,14.20
2015,06,09,05,58,14.20
2015,06,09,05,59,14.20
2015,06,09,06,00,14.10
2015,06,09,06,01,14.10
2015,06,09,06,02,14.10
2015,06,09,06,03,14.10
2015,06,09,06,04,14.10
2015,06,09,06,05,14.10
2015,06,09,06,06,14.00
2015,06,09,06,07,14.00
2015,06,09,06,08,14.00
2015,06,09,06,09,14.00
2015,06,09,06,10,13.90
2015,06,09,06,11,13.90
2015,06,09,06,12,13.90
2015,06,09,06,13,13.90
2015,06,09,06,14,13.90
2015,06,09,06,15,13.90
2015,06,09,06,16,13.90
2015,06,09,06,17,13.90
2015,06,09,06,18,13.80
2015,06,09,06,19,13.80
2015,06,09,06,20,13.80
2015,06,09,06,21,13.80
2015,06,09,06,22,13.80
2015,06,09,06,23,13.80
2015,06,09,06,24,13.80
2015,06,09,06,25,13.80
2015,06,09,06,26,13.70
2015,06,09,06,27,13.70
2015,06,09,06,28,13.70
2015,06,09,06,29,13.70
2015,06,09,06,30,13.70
2015,06,09,06,31,13.70
2015,06,09,06,32,13.60
2015,06,09,06,33,13.60
2015,06,09,06,34,13.60
2015,06,09,06,35,13.60
2015,06,09,06,36,13.60
2015,06,09,06,37,13.60
2015,06,09,06,38,13.60
2015,06,09,06,39,13.60
2015,06,09,06,40,13.60
2015,06,09,06,41,13.60
2015,06,09,06,42,13.60
2015,06,09,06,43,13.60
2015,06,09,06,44,13.60
2015,06,09,06,45,13.60
2015,06,09,06,46,13.60
2015,06,09,06,47,13.60
2015,06,09,06,48,13.60
2015,06,09,06,49,13.60
2015,06,09,06,50,13.60
2015,06,09,06,51,13.60
2015,06,09,06,52,13.60
2015,06,09,06,53,13.60
2015,06,09,06,54,13.70
2015,06,09,06,55,13.70
2015,06,09,06,56,13.70
2015,06,09,06,57,13.70
2015,06,09,06,58,13.70
2015,06,09,06,59,13.70
2015,06,09,07,00,13.70
2015,06,09,07,01,13.70
2015,06,09,07,02,13.70
2015,06,09,07,03,13.70
2015,06,09,07,04,13.80
2015,06,09,07,05,13.80
2015,06,09,07,06,13.80
2015,06,09,07,07,13.80
2015,06,09,07,08,13.80
2015,06,09,07,09,13.90
2015,06,09,07,10,13.90
2015,06,09,07,11,14.00
2015,06,09,07,12,14.00
2015,06,09,07,13,14.10
2015,06,09,07,14,14.10
2015,06,09,07,15,14.20
2015,06,09,07,16,14.20
2015,06,09,07,17,14.20
2015,06,09,07,18,14.20
2015,06,09,07,19,14.20
2015,06,09,07,20,14.30
2015,06,09,07,21,14.30
2015,06,09,07,22,14.30
2015,06,09,07,23,14.30
2015,06,09,07,24,14.30
2015,06,09,07,25,14.30
2015,06,09,07,26,14.30
2015,06,09,07,27,14.30
2015,06,09,07,28,14.30
2015,06,09,07,29,14.30
2015,06,09,07,30,14.30
2015,06,09,07,31,14.40
2015,06,09,07,32,14.40
2015,06,09,07,33,14.40
2015,06,09,07,34,14.40
2015,06,09,07,35,14.40
2015,06,09,07,36,14.40
2015,06,09,07,37,14.40
2015,06,09,07,38,14.50
2015,06,09,07,39,14.50
2015,06,09,07,40,14.50
2015,06,09,07,41,14.50
2015,06,09,07,42,14.60
2015,06,09,07,43,14.60
2015,06,09,07,44,14.60
2015,06,09,07,45,14.60
2015,06,09,07,46,14.70
2015,06,09,07,47,14.70
2015,06,09,07,48,14.70
2015,06,09,07,49,14.70
2015,06,09,07,50,14.80
2015,06,09,07,51,14.80
2015,06,09,07,52,14.80
2015,06,09,07,53,14.80
2015,06,09,07,54,14.90
2015,06,09,07,55,14.90
2015,06,09,07,56,14.90
2015,06,09,07,57,15.00
2015,06,09,07,58,15.00
2015,06,09,07,59,15.00
2015,06,09,08,00,15.10
2015,06,09,08,01,15.10
2015,06,09,08,02,15.20
2015,06,09,08,03,15.20
2015,06,09,08,04,15.20
2015,06,09,08,05,15.30
2015,06,09,08,06,15.30
2015,06,09,08,07,15.40
2015,06,09,08,08,15.50
2015,06,09,08,09,15.60
2015,06,09,08,10,15.60
2015,06,09,08,11,15.60
2015,06,09,08,12,15.70
2015,06,09,08,13,15.70
2015,06,09,08,14,15.70
2015,06,09,08,15,15.80
2015,06,09,08,16,15.80
2015,06,09,08,17,15.90
2015,06,09,08,18,16.00
2015,06,09,08,19,16.00
2015,06,09,08,20,16.10
2015,06,09,08,21,16.10
2015,06,09,08,22,16.20
2015,06,09,08,23,16.30
2015,06,09,08,24,16.30
2015,06,09,08,25,16.30
2015,06,09,08,26,16.30
2015,06,09,08,27,16.30
2015,06,09,08,28,16.40
2015,06,09,08,29,16.50
2015,06,09,08,30,16.50
2015,06,09,08,31,16.60
2015,06,09,08,32,16.70
2015,06,09,08,33,16.80
2015,06,09,08,34,16.80
2015,06,09,08,35,16.90
2015,06,09,08,36,16.90
2015,06,09,08,37,17.00
2015,06,09,08,38,17.10
2015,06,09,08,39,17.10
2015,06,09,08,40,17.10
2015,06,09,08,41,17.10
2015,06,09,08,42,17.00
2015,06,09,08,43,17.00
2015,06,09,08,44,17.00
2015,06,09,08,45,17.00
2015,06,09,08,46,16.90
2015,06,09,08,47,17.00
2015,06,09,08,48,17.00
2015,06,09,08,49,17.00
2015,06,09,08,50,17.10
2015,06,09,08,51,17.10
2015,06,09,08,52,17.20
2015,06,09,08,53,17.30
2015,06,09,08,54,17.30
2015,06,09,08,55,17.30
2015,06,09,08,56,17.30
2015,06,09,08,57,17.30
2015,06,09,08,58,17.30
2015,06,09,08,59,17.30
2015,06,09,09,00,17.30
2015,06,09,09,01,17.30
2015,06,09,09,02,17.30
2015,06,09,09,03,17.30
2015,06,09,09,04,17.30
2015,06,09,09,05,17.30
2015,06,09,09,06,17.30
2015,06,09,09,07,17.40
2015,06,09,09,08,17.40
2015,06,09,09,09,17.50
2015,06,09,09,10,17.60
2015,06,09,09,11,17.60
2015,06,09,09,12,17.70
2015,06,09,09,13,17.80
2015,06,09,09,14,17.80
2015,06,09,09,15,17.80
2015,06,09,09,16,17.90
2015,06,09,09,17,17.90
2015,06,09,09,18,17.90
2015,06,09,09,19,18.00
2015,06,09,09,20,18.10
2015,06,09,09,21,18.10
2015,06,09,09,22,18.20
2015,06,09,09,23,18.20
2015,06,09,09,24,18.20
2015,06,09,09,25,18.20
2015,06,09,09,26,18.30
2015,06,09,09,27,18.30
2015,06,09,09,28,18.40
2015,06,09,09,29,18.40
2015,06,09,09,30,18.50
2015,06,09,09,31,18.50
2015,06,09,09,32,18.50
2015,06,09,09,33,18.60
2015,06,09,09,34,18.60
2015,06,09,09,35,18.70
2015,06,09,09,36,18.70
2015,06,09,09,37,18.80
2015,06,09,09,38,18.80
2015,06,09,09,39,18.80
2015,06,09,09,40,18.90
2015,06,09,09,41,18.90
2015,06,09,09,42,19.00
2015,06,09,09,43,19.00
2015,06,09,09,44,19.10
2015,06,09,09,45,19.10
2015,06,09,09,46,19.10
2015,06,09,09,47,19.10
2015,06,09,09,48,19.10
2015,06,09,09,49,19.10
2015,06,09,09,50,19.10
2015,06,09,09,51,19.10
2015,06,09,09,52,19.10
2015,06,09,09,53,19.10
2015,06,09,09,54,19.10
2015,06,09,09,55,19.00
2015,06,09,09,56,19.00
2015,06,09,09,57,19.00
2015,06,09,09,58,19.00
2015,06,09,09,59,19.10
2015,06,09,10,00,19.10
2015,06,09,10,01,19.20
2015,06,09,10,02,19.20
2015,06,09,10,03,19.20
2015,06,09,10,04,19.20
2015,06,09,10,05,19.20
2015,06,09,10,06,19.20
2015,06,09,10,07,19.20
2015,06,09,10,08,19.30
2015,06,09,10,09,19.20
2015,06,09,10,10,19.20
2015,06,09,10,11,19.10
2015,06,09,10,12,19.10
2015,06,09,10,13,19.10
2015,06,09,10,14,19.10
2015,06,09,10,15,19.20
2015,06,09,10,16,19.20
2015,06,09,10,17,19.20
2015,06,09,10,18,19.20
2015,06,09,10,19,19.20
2015,06,09,10,20,19.20
2015,06,09,10,21,19.20
2015,06,09,10,22,19.30
2015,06,09,10,23,19.20
2015,06,09,10,24,19.20
2015,06,09,10,25,19.20
2015,06,09,10,26,19.30
2015,06,09,10,27,19.30
2015,06,09,10,28,19.40
2015,06,09,10,29,19.40
2015,06,09,10,30,19.40
2015,06,09,10,31,19.40
2015,06,09,10,32,19.40
2015,06,09,10,33,19.50
2015,06,09,10,34,19.60
2015,06,09,10,35,19.60
2015,06,09,10,36,19.60
2015,06,09,10,37,19.70
2015,06,09,10,38,19.70
2015,06,09,10,39,19.80
2015,06,09,10,40,19.80
2015,06,09,10,41,19.90
2015,06,09,10,42,19.90
2015,06,09,10,43,20.00
2015,06,09,10,44,20.10
2015,06,09,10,45,20.10
2015,06,09,10,46,20.20
2015,06,09,10,47,20.20
2015,06,09,10,48,20.20
2015,06,09,10,49,20.30
2015,06,09,10,50,20.30
2015,06,09,10,51,20.20
2015,06,09,10,52,20.20
2015,06,09,10,53,20.10
2015,06,09,10,54,20.00
2015,06,09,10,55,20.00
2015,06,09,10,56,20.00
2015,06,09,10,57,20.00
2015,06,09,10,58,20.00
2015,06,09,10,59,20.00
2015,06,09,11,00,20.10
2015,06,09,11,01,20.10
2015,06,09,11,02,20.20
2015,06,09,11,03,20.20
2015,06,09,11,04,20.30
2015,06,09,11,05,20.40
2015,06,09,11,06,20.40
2015,06,09,11,07,20.40
2015,06,09,11,08,20.50
2015,06,09,11,09,20.50
2015,06,09,11,10,20.60
2015,06,09,11,11,20.60
2015,06,09,11,12,20.60
2015,06,09,11,13,20.60
2015,06,09,11,14,20.60
2015,06,09,11,15,20.50
2015,06,09,11,16,20.50
2015,06,09,11,17,20.50
2015,06,09,11,18,20.50
2015,06,09,11,19,20.50
2015,06,09,11,20,20.40
2015,06,09,11,21,20.40
2015,06,09,11,22,20.50
2015,06,09,11,23,20.50
2015,06,09,11,24,20.60
2015,06,09,11,25,20.60
2015,06,09,11,26,20.70
2015,06,09,11,27,20.70
2015,06,09,11,28,20.80
2015,06,09,11,29,20.80
2015,06,09,11,30,20.80
2015,06,09,11,31,20.80
2015,06,09,11,32,20.80
2015,06,09,11,33,20.80
2015,06,09,11,34,20.90
2015,06,09,11,35,20.90
2015,06,09,11,36,21.00
2015,06,09,11,37,21.10
2015,06,09,11,38,21.10
2015,06,09,11,39,21.10
2015,06,09,11,40,21.10
2015,06,09,11,41,21.20
2015,06,09,11,42,21.20
2015,06,09,11,43,21.20
2015,06,09,11,44,21.30
2015,06,09,11,45,21.30
2015,06,09,11,46,21.30
2015,06,09,11,47,21.30
2015,06,09,11,48,21.30
2015,06,09,11,49,21.40
2015,06,09,11,50,21.40
2015,06,09,11,51,21.50
2015,06,09,11,52,21.60
2015,06,09,11,53,21.60
2015,06,09,11,54,21.60
2015,06,09,11,55,21.60
2015,06,09,11,56,21.60
2015,06,09,11,57,21.60
2015,06,09,11,58,21.60
2015,06,09,11,59,21.70
2015,06,09,12,00,21.70
2015,06,09,12,01,21.80
2015,06,09,12,02,21.70
2015,06,09,12,03,21.70
2015,06,09,12,04,21.70
2015,06,09,12,05,21.70
2015,06,09,12,06,21.70
2015,06,09,12,07,21.80
2015,06,09,12,08,21.80
2015,06,09,12,09,21.80
2015,06,09,12,10,21.90
2015,06,09,12,11,21.90
2015,06,09,12,12,21.90
2015,06,09,12,13,21.90
2015,06,09,12,14,21.90
2015,06,09,12,15,22.00
2015,06,09,12,16,22.00
2015,06,09,12,17,22.00
2015,06,09,12,18,22.00
2015,06,09,12,19,21.90
2015,06,09,12,20,21.80
2015,06,09,12,21,21.80
2015,06,09,12,22,21.70
2015,06,09,12,23,21.70
2015,06,09,12,24,21.60
2015,06,09,12,25,21.60
2015,06,09,12,26,21.50
2015,06,09,12,27,21.50
2015,06,09,12,28,21.40
2015,06,09,12,29,21.40
2015,06,09,12,30,21.40
2015,06,09,12,31,21.50
2015,06,09,12,32,21.50
2015,06,09,12,33,21.60
2015,06,09,12,34,21.60
2015,06,09,12,35,21.60
2015,06,09,12,36,21.70
2015,06,09,12,37,21.70
2015,06,09,12,38,21.70
2015,06,09,12,39,21.70
2015,06,09,12,40,21.70
2015,06,09,12,41,21.70
2015,06,09,12,42,21.70
2015,06,09,12,43,21.70
2015,06,09,12,44,21.60
2015,06,09,12,45,21.60
2015,06,09,12,46,21.50
2015,06,09,12,47,21.40
2015,06,09,12,48,21.30
2015,06,09,12,49,21.30
2015,06,09,12,50,21.30
2015,06,09,12,51,21.30
2015,06,09,12,52,21.30
2015,06,09,12,53,21.30
2015,06,09,12,54,21.30
2015,06,09,12,55,21.30
2015,06,09,12,56,21.40
2015,06,09,12,57,21.40
2015,06,09,12,58,21.50
2015,06,09,12,59,21.60
2015,06,09,13,00,21.60
2015,06,09,13,01,21.60
2015,06,09,13,02,21.70
2015,06,09,13,03,21.70
2015,06,09,13,04,21.80
2015,06,09,13,05,21.80
2015,06,09,13,06,21.90
2015,06,09,13,07,21.90
2015,06,09,13,08,21.90
2015,06,09,13,09,22.00
2015,06,09,13,10,22.10
2015,06,09,13,11,22.20
2015,06,09,13,12,22.30
2015,06,09,13,13,22.30
2015,06,09,13,14,22.40
2015,06,09,13,15,22.30
2015,06,09,13,16,22.30
2015,06,09,13,17,22.30
2015,06,09,13,18,22.30
2015,06,09,13,19,22.30
2015,06,09,13,20,22.30
2015,06,09,13,21,22.20
2015,06,09,13,22,22.10
2015,06,09,13,23,22.10
2015,06,09,13,24,22.10
2015,06,09,13,25,22.10
2015,06,09,13,26,22.00
2015,06,09,13,27,22.00
2015,06,09,13,28,22.00
2015,06,09,13,29,22.00
2015,06,09,13,30,22.00
2015,06,09,13,31,22.00
2015,06,09,13,32,22.10
2015,06,09,13,33,22.20
2015,06,09,13,34,22.20
2015,06,09,13,35,22.30
2015,06,09,13,36,22.40
2015,06,09,13,37,22.60
2015,06,09,13,38,22.70
2015,06,09,13,39,22.80
2015,06,09,13,40,22.80
2015,06,09,13,41,22.90
2015,06,09,13,42,23.00
2015,06,09,13,43,23.10
2015,06,09,13,44,23.20
2015,06,09,13,45,23.30
2015,06,09,13,46,23.30
2015,06,09,13,47,23.30
2015,06,09,13,48,23.30
2015,06,09,13,49,23.30
2015,06,09,13,50,23.30
2015,06,09,13,51,23.30
2015,06,09,13,52,23.30
2015,06,09,13,53,23.30
2015,06,09,13,54,23.30
2015,06,09,13,55,23.40
2015,06,09,13,56,23.50
2015,06,09,13,57,23.60
2015,06,09,13,58,23.50
2015,06,09,13,59,23.40
2015,06,09,14,00,23.30
2015,06,09,14,01,23.30
2015,06,09,14,02,23.30
2015,06,09,14,03,23.20
2015,06,09,14,04,23.20
2015,06,09,14,05,23.10
2015,06,09,14,06,23.00
2015,06,09,14,07,22.90
2015,06,09,14,08,22.90
2015,06,09,14,09,22.90
2015,06,09,14,10,22.90
2015,06,09,14,11,22.90
2015,06,09,14,12,22.80
2015,06,09,14,13,22.80
2015,06,09,14,14,22.80
2015,06,09,14,15,22.80
2015,06,09,14,16,22.80
2015,06,09,14,17,22.80
2015,06,09,14,18,22.90
2015,06,09,14,19,22.90
2015,06,09,14,20,23.00
2015,06,09,14,21,23.00
2015,06,09,14,22,23.10
2015,06,09,14,23,23.10
2015,06,09,14,24,23.20
2015,06,09,14,25,23.20
2015,06,09,14,26,23.30
2015,06,09,14,27,23.30
2015,06,09,14,28,23.40
2015,06,09,14,29,23.40
2015,06,09,14,30,23.40
2015,06,09,14,31,23.40
2015,06,09,14,32,23.40
2015,06,09,14,33,23.40
2015,06,09,14,34,23.30
2015,06,09,14,35,23.30
2015,06,09,14,36,23.30
2015,06,09,14,37,23.30
2015,06,09,14,38,23.20
2015,06,09,14,39,23.20
2015,06,09,14,40,23.20
2015,06,09,14,41,23.20
2015,06,09,14,42,23.20
2015,06,09,14,43,23.30
2015,06,09,14,44,23.30
2015,06,09,14,45,23.30
2015,06,09,14,46,23.40
2015,06,09,14,47,23.40
2015,06,09,14,48,23.40
2015,06,09,14,49,23.50
2015,06,09,14,50,23.50
2015,06,09,14,51,23.60
2015,06,09,14,52,23.50
2015,06,09,14,53,23.50
2015,06,09,14,54,23.50
2015,06,09,14,55,23.60
2015,06,09,14,56,23.60
2015,06,09,14,57,23.60
2015,06,09,14,58,23.60
2015,06,09,14,59,23.70
2015,06,09,15,00,23.80
2015,06,09,15,01,23.80
2015,06,09,15,02,23.90
2015,06,09,15,03,23.90
2015,06,09,15,04,23.80
2015,06,09,15,05,23.80
2015,06,09,15,06,23.80
2015,06,09,15,07,23.80
2015,06,09,15,08,23.80
2015,06,09,15,09,23.70
2015,06,09,15,10,23.60
2015,06,09,15,11,23.60
2015,06,09,15,12,23.70
2015,06,09,15,13,23.70
2015,06,09,15,14,23.80
2015,06,09,15,15,23.80
2015,06,09,15,16,23.80
2015,06,09,15,17,23.80
2015,06,09,15,18,23.80
2015,06,09,15,19,23.80
2015,06,09,15,20,23.90
2015,06,09,15,21,23.90
2015,06,09,15,22,23.80
2015,06,09,15,23,23.90
2015,06,09,15,24,23.90
2015,06,09,15,25,23.90
2015,06,09,15,26,24.00
2015,06,09,15,27,24.00
2015,06,09,15,28,24.10
2015,06,09,15,29,24.10
2015,06,09,15,30,24.10
2015,06,09,15,31,24.10
2015,06,09,15,32,24.10
2015,06,09,15,33,24.10
2015,06,09,15,34,24.00
2015,06,09,15,35,24.00
2015,06,09,15,36,24.10
2015,06,09,15,37,24.10
2015,06,09,15,38,24.20
2015,06,09,15,39,24.30
2015,06,09,15,40,24.40
2015,06,09,15,41,24.40
2015,06,09,15,42,24.40
2015,06,09,15,43,24.40
2015,06,09,15,44,24.50
2015,06,09,15,45,24.50
2015,06,09,15,46,24.30
2015,06,09,15,47,24.20
2015,06,09,15,48,24.10
2015,06,09,15,49,24.00
2015,06,09,15,50,23.90
2015,06,09,15,51,23.80
2015,06,09,15,52,23.70
2015,06,09,15,53,23.70
2015,06,09,15,54,23.70
2015,06,09,15,55,23.70
2015,06,09,15,56,23.70
2015,06,09,15,57,23.70
2015,06,09,15,58,23.70
2015,06,09,15,59,23.70
2015,06,09,16,00,23.80
2015,06,09,16,01,23.80
2015,06,09,16,02,23.80
2015,06,09,16,03,23.90
2015,06,09,16,04,23.90
2015,06,09,16,05,24.00
2015,06,09,16,06,24.00
2015,06,09,16,07,24.10
2015,06,09,16,08,24.20
2015,06,09,16,09,24.20
2015,06,09,16,10,24.20
2015,06,09,16,11,24.20
2015,06,09,16,12,24.20
2015,06,09,16,13,24.20
2015,06,09,16,14,24.10
2015,06,09,16,15,24.20
2015,06,09,16,16,24.20
2015,06,09,16,17,24.20
2015,06,09,16,18,24.20
2015,06,09,16,19,24.10
2015,06,09,16,20,24.10
2015,06,09,16,21,24.00
2015,06,09,16,22,24.00
2015,06,09,16,23,23.90
2015,06,09,16,24,23.90
2015,06,09,16,25,23.90
2015,06,09,16,26,23.90
2015,06,09,16,27,23.90
2015,06,09,16,28,24.00
2015,06,09,16,29,23.90
2015,06,09,16,30,23.80
2015,06,09,16,31,23.80
2015,06,09,16,32,23.80
2015,06,09,16,33,23.90
2015,06,09,16,34,23.90
2015,06,09,16,35,23.90
2015,06,09,16,36,23.90
2015,06,09,16,37,23.80
2015,06,09,16,38,23.70
2015,06,09,16,39,23.70
2015,06,09,16,40,23.80
2015,06,09,16,41,23.80
2015,06,09,16,42,24.00
2015,06,09,16,43,24.10
2015,06,09,16,44,24.10
2015,06,09,16,45,24.20
2015,06,09,16,46,24.20
2015,06,09,16,47,24.20
2015,06,09,16,48,24.20
2015,06,09,16,49,24.30
2015,06,09,16,50,24.30
2015,06,09,16,51,24.30
2015,06,09,16,52,24.20
2015,06,09,16,53,24.20
2015,06,09,16,54,24.20
2015,06,09,16,55,24.20
2015,06,09,16,56,24.20
2015,06,09,16,57,24.10
2015,06,09,16,58,24.10
2015,06,09,16,59,24.00
2015,06,09,17,00,24.00
2015,06,09,17,01,24.00
2015,06,09,17,02,24.00
2015,06,09,17,03,23.90
2015,06,09,17,04,24.00
2015,06,09,17,05,24.00
2015,06,09,17,06,24.00
2015,06,09,17,07,24.00
2015,06,09,17,08,24.00
2015,06,09,17,09,24.00
2015,06,09,17,10,23.90
2015,06,09,17,11,23.90
2015,06,09,17,12,23.80
2015,06,09,17,13,23.80
2015,06,09,17,14,23.80
2015,06,09,17,15,23.70
2015,06,09,17,16,23.80
2015,06,09,17,17,23.80
2015,06,09,17,18,23.80
2015,06,09,17,19,23.80